Wind_Speed
4 4 3 3 3 4 5 5 4 5 6 6 7 7 7 7 8 7 8 8 8 8 8 7 7 7 8 9 8 9 9 9 9 8 6 5 5 5 6 8 9 10 11 12 14 15 15 15 16 17 18 18 19 19 20 21 22 24 26 28 29 30 30 30 29 27 26 26 26 26 26 27 27 29
3 3 3 4 4 4 5 5 5 5 6 7 8 7 7 6 6 6 6 6 6 6 6 6 6 6 7 8 7 7 7 7 7 6 5 4 4 4 6 8 9 11 11 13 14 16 16 16 17 18 19 19 20 21 21 22 23 24 25 27 29 30 30 30 29 27 25 25 24 24 24 25 25 26
2 2 3 3 3 4 5 5 5 5 6 7 8 7 6 6 5 5 5 4 4 4 4 4 5 5 6 7 7 7 7 7 7 6 5 4 4 4 6 8 10 11 13 15 15 16 17 17 17 18 19 19 20 21 22 23 24 24 25 25 27 29 29 29 29 27 25 24 23 22 22 23 23 23
2 2 2 2 2 3 4 4 4 5 6 7 6 6 6 5 4 4 3 2 2 3 3 3 4 6 6 6 7 7 7 8 7 6 5 4 4 4 6 8 10 12 15 16 17 17 17 17 17 17 18 19 20 21 22 23 24 24 24 24 25 26 27 28 28 27 25 23 22 21 20 21 21 21
3 3 3 3 3 3 3 3 4 5 6 5 4 4 4 4 3 3 2 2 1 2 3 4 5 5 6 6 7 7 8 8 7 6 5 4 3 4 6 8 10 13 15 17 18 18 17 17 17 16 17 18 19 20 21 22 23 23 23 24 24 25 25 26 26 25 25 23 21 20 19 19 19 19
5 5 5 4 4 4 4 4 4 4 4 3 2 2 3 3 3 2 1 1 1 2 3 4 4 5 5 6 6 7 7 7 6 5 4 3 3 4 5 7 10 12 15 17 18 19 18 17 17 17 18 18 19 20 21 21 22 22 23 23 23 24 24 24 24 24 24 23 22 19 18 17 16 16
8 7 7 7 6 6 5 5 5 5 5 5 4 4 4 4 4 3 2 1 1 1 2 3 4 5 5 6 6 7 7 6 5 5 4 4 4 5 6 8 10 12 15 17 18 19 19 18 18 18 18 18 19 19 20 21 21 22 22 22 22 23 23 23 24 23 22 22 21 20 17 16 15 14
9 8 8 8 8 8 7 7 7 7 7 7 6 6 5 5 5 4 3 2 2 2 3 4 4 5 5 6 6 6 6 6 6 5 5 6 6 7 8 10 12 13 15 16 18 18 18 18 18 18 19 19 19 19 20 20 20 21 21 21 21 22 22 23 23 23 21 20 20 20 18 16 14 13
9 9 9 9 9 8 8 9 9 9 9 9 8 8 7 7 6 5 5 4 4 4 4 5 5 5 6 6 6 7 7 7 8 8 8 9 9 9 10 11 13 16 17 17 16 16 16 16 16 17 17 18 18 18 18 19 19 19 19 19 20 21 21 21 22 22 21 20 19 19 18 17 15 13
10 10 10 9 9 9 9 10 11 11 11 11 11 10 10 9 8 7 6 6 6 6 7 7 7 6 6 7 7 7 8 9 10 10 11 12 13 13 14 14 15 17 18 16 15 14 14 14 13 14 14 15 16 16 16 16 17 17 17 17 18 19 20 20 20 20 20 20 19 18 18 17 16 14
11 11 10 9 9 10 10 10 11 12 12 12 12 12 12 11 10 9 9 9 10 10 10 10 9 8 8 9 9 10 10 11 12 13 14 15 16 16 16 17 17 18 17 15 14 14 14 13 12 12 12 13 14 14 14 15 15 15 15 16 16 18 18 19 18 18 19 19 18 18 17 16 15 14
12 11 11 10 10 10 11 12 12 12 11 11 12 13 13 13 12 12 12 12 12 13 13 12 12 11 11 12 12 13 13 13 14 16 17 18 19 18 17 16 16 17 18 16 14 14 14 14 13 13 13 13 13 13 13 14 14 15 15 15 15 16 17 17 17 16 17 17 17 17 17 16 16 14
12 12 12 11 10 11 12 13 13 12 11 11 12 12 13 13 12 12 13 13 13 14 14 14 13 13 13 14 14 15 15 15 16 16 17 18 18 19 18 16 14 15 18 18 16 14 16 16 15 15 14 14 14 14 14 14 15 15 15 14 15 15 15 16 16 15 15 16 17 17 16 15 15 15
13 12 12 12 11 12 13 14 14 13 13 13 13 13 13 13 12 12 13 13 13 14 14 14 13 14 14 14 15 15 15 15 15 15 15 16 16 17 18 18 15 13 15 18 17 15 15 16 16 16 16 16 15 15 15 15 15 15 15 15 14 14 14 14 15 15 14 14 15 16 16 15 14 14
14 14 14 13 13 14 15 15 15 15 14 14 15 15 14 13 13 13 14 14 14 14 14 13 12 13 14 14 14 14 14 14 14 14 14 15 15 16 18 19 18 15 14 17 18 16 15 16 16 16 16 15 15 14 14 15 15 15 15 15 15 14 14 14 14 14 14 13 13 14 16 16 15 13
18 17 17 16 16 17 18 18 18 18 17 16 16 16 16 15 14 15 16 16 16 16 15 15 14 13 14 14 14 14 14 15 14 14 15 15 16 17 17 18 19 18 16 17 18 17 16 16 16 15 15 14 14 13 14 14 15 15 15 15 15 15 14 14 13 14 14 14 13 13 14 15 16 15
22 21 20 20 20 20 21 21 22 21 20 20 20 19 18 17 16 17 17 18 18 18 17 17 16 15 15 16 16 15 16 16 16 17 17 17 17 17 18 18 18 18 17 17 19 18 17 17 18 17 16 16 15 15 14 15 15 16 16 16 16 16 16 15 14 13 13 13 13 13 14 14 15 15
24 24 23 23 23 23 24 24 24 24 24 24 24 23 21 20 19 19 19 20 20 20 20 19 19 19 18 18 18 18 18 18 19 19 19 19 19 19 19 19 18 17 17 17 19 19 18 18 19 19 19 19 18 17 17 16 16 17 17 17 17 17 17 17 15 14 14 13 13 14 14 14 14 14
26 25 25 26 26 26 26 26 26 27 27 27 26 25 24 23 22 21 21 22 22 22 22 22 22 22 22 21 21 21 21 21 21 21 21 21 21 21 21 21 20 19 18 18 20 20 19 18 19 20 20 20 20 20 19 18 18 18 19 19 19 18 18 18 18 17 16 15 15 15 15 14 14 13
28 27 27 27 28 28 28 28 28 28 28 28 28 27 26 25 23 23 23 24 24 24 24 24 24 24 24 24 23 22 23 23 23 22 22 22 22 22 22 22 22 20 19 19 20 20 20 19 20 21 22 21 21 21 21 21 20 20 20 20 20 19 19 19 19 19 18 17 17 17 16 16 15 14
29 29 28 28 29 30 31 31 30 30 30 29 29 28 27 26 24 24 25 26 26 26 26 27 27 27 27 27 26 25 25 25 25 24 23 23 23 23 22 23 23 22 20 19 21 21 21 20 21 22 23 23 23 23 23 21 21 20 20 20 19 19 19 19 19 19 19 19 18 18 18 17 16 15
31 31 31 31 32 32 33 33 33 33 32 31 30 29 28 27 26 26 27 28 28 28 28 29 30 30 30 30 29 29 28 28 27 26 26 25 25 25 24 23 25 24 22 20 22 23 22 21 21 23 24 24 23 23 23 22 21 20 19 18 18 18 18 18 18 18 19 19 19 19 18 18 17 16
33 33 34 33 33 32 33 34 35 35 33 31 30 29 29 29 29 29 29 30 30 31 31 31 31 31 30 31 31 31 30 30 29 28 28 27 27 27 26 25 26 27 24 21 22 23 23 22 21 21 23 25 24 23 22 22 22 21 19 18 17 17 18 17 17 17 18 18 19 19 19 19 19 18
33 32 31 30 30 30 32 34 36 36 34 32 32 31 31 31 32 32 32 32 33 34 34 34 33 31 30 30 30 30 30 30 29 29 28 28 28 28 28 27 27 27 25 22 21 22 22 22 21 20 21 22 24 25 24 23 22 21 21 20 19 19 19 18 18 18 18 18 18 19 19 20 20 21
30 29 30 29 28 29 31 33 34 34 33 33 33 32 32 32 32 33 33 34 35 35 36 35 34 32 31 30 29 29 29 29 28 28 28 27 27 27 27 27 28 27 25 21 20 21 22 21 21 21 21 21 22 24 25 25 23 22 22 22 22 22 22 21 21 21 21 21 21 20 20 20 21 22
28 28 27 27 28 29 29 29 30 31 33 33 32 32 31 31 31 32 34 35 35 35 35 35 34 33 32 31 29 29 28 27 26 26 26 26 26 26 26 26 26 26 24 21 20 21 22 22 22 22 22 23 23 24 25 26 25 24 25 25 25 25 25 25 26 25 25 26 26 25 24 23 23 23
28 26 22 23 27 28 28 27 27 29 31 31 31 31 30 30 30 31 31 31 30 30 31 31 31 30 30 29 28 26 24 23 24 24 24 24 24 24 24 25 24 23 23 23 23 23 24 24 24 24 24 25 26 26 27 26 26 27 28 29 27 27 28 28 28 28 29 29 29 29 29 28 27 27
28 23 21 23 26 27 26 27 26 27 29 30 31 30 30 30 29 28 27 26 26 27 28 28 28 28 28 28 27 25 24 24 25 25 24 23 23 24 25 25 24 23 24 25 27 27 27 27 27 27 28 28 29 29 29 29 28 29 31 32 31 30 30 30 30 30 31 32 32 32 32 32 31 31
31 27 28 31 32 30 29 28 26 26 27 28 28 29 29 29 28 28 27 26 27 27 28 28 29 29 30 29 29 28 28 28 29 28 27 26 27 27 28 28 27 27 28 28 29 30 30 30 30 30 31 31 31 30 31 32 32 32 32 33 33 33 32 32 32 32 33 34 34 34 34 34 34 34
35 33 34 35 34 33 31 29 28 28 27 27 27 28 29 29 29 30 30 30 30 30 31 31 33 33 34 33 32 32 32 31 30 30 29 30 30 30 30 31 31 31 31 31 32 32 31 31 32 33 34 34 33 33 33 34 35 35 34 34 35 34 34 33 33 33 34 35 36 37 37 37 37 37
37 36 35 35 35 33 32 31 31 31 30 30 30 30 31 32 32 33 33 33 33 33 33 33 35 36 36 35 34 34 33 32 31 31 31 32 32 32 32 33 34 34 34 33 34 34 34 34 34 35 36 37 37 36 36 36 37 37 37 37 37 37 36 36 36 36 36 36 38 39 40 41 41 41
38 38 37 37 36 34 33 33 33 33 33 32 32 33 34 34 34 35 35 35 35 35 34 35 35 36 36 35 34 34 34 33 33 33 33 34 34 34 35 35 36 37 38 37 37 36 36 37 37 38 39 40 40 40 40 40 40 40 40 41 41 40 40 40 40 41 41 40 41 42 43 44 45 46
38 38 38 38 38 37 36 35 35 35 35 35 35 35 35 36 36 36 37 37 37 37 37 37 37 36 36 35 35 35 35 35 36 36 36 36 37 37 38 39 40 41 42 42 41 40 40 40 41 42 43 43 44 44 44 45 45 44 44 44 44 44 44 44 45 45 45 45 45 45 46 47 48 49
38 38 39 40 40 39 39 38 37 37 37 37 38 38 38 38 38 38 39 39 39 39 40 40 39 39 38 37 37 38 38 38 39 40 40 40 40 41 42 43 44 45 46 46 46 45 45 45 45 46 47 48 48 48 48 48 48 48 48 48 48 47 48 48 49 49 49 49 49 48 48 49 51 52
41 41 41 41 40 40 40 40 40 40 41 41 41 41 41 41 41 41 41 41 41 41 41 42 42 42 41 41 41 42 42 43 43 44 44 44 45 45 46 46 47 48 49 49 49 49 49 49 49 49 49 50 51 52 52 52 52 52 52 52 52 51 51 51 52 53 53 53 53 52 50 50 51 54
44 44 43 43 42 41 41 41 42 42 43 44 45 45 44 44 44 44 44 44 44 44 44 44 45 45 45 45 45 46 46 47 48 48 49 49 49 49 49 50 50 50 51 51 51 51 51 51 50 51 51 52 52 53 54 56 57 57 56 56 56 56 56 56 56 56 56 56 56 56 55 53 53 54
46 46 46 45 45 44 44 44 44 45 46 47 48 49 49 49 48 48 47 47 47 47 47 47 47 48 49 49 49 50 50 50 51 52 52 53 53 52 52 52 52 52 52 52 52 52 52 52 53 53 53 52 52 52 53 56 58 60 60 59 58 59 59 59 58 58 59 59 59 59 59 58 56 56
49 48 48 48 47 47 47 47 47 48 49 50 51 51 52 52 52 51 50 49 49 49 49 49 50 50 51 51 52 52 52 53 53 53 53 54 53 53 53 53 53 53 53 53 53 54 54 54 54 54 54 54 54 53 53 54 57 60 61 61 60 60 60 61 61 60 61 61 61 61 62 62 61 60
50 50 50 50 49 49 49 49 49 50 51 52 53 53 53 53 53 53 53 52 52 52 53 53 53 53 53 53 53 53 53 53 54 54 54 54 54 54 54 53 53 53 53 53 54 55 55 55 55 55 56 56 56 55 55 54 56 58 61 62 62 62 62 62 63 63 63 63 63 63 63 64 64 64
52 52 52 51 51 51 51 51 52 52 53 54 54 54 55 55 55 55 55 55 55 55 56 56 56 56 56 56 56 55 55 55 54 54 54 54 54 54 54 53 53 53 54 54 55 55 56 56 56 57 57 58 57 57 57 57 57 58 60 62 63 64 64 64 65 65 65 65 65 65 65 65 66 66
53 53 53 53 53 54 54 54 55 55 56 56 56 56 57 57 57 57 57 58 57 57 57 57 57 58 58 57 57 57 57 56 56 55 55 55 55 55 54 54 55 55 55 56 56 56 57 58 58 59 60 60 60 60 60 60 60 61 62 64 65 66 66 67 67 67 68 68 69 69 69 69 69 70
55 55 55 56 56 56 57 57 58 58 58 59 59 59 60 60 60 60 60 60 59 59 59 59 59 59 59 58 58 58 57 57 57 57 57 57 56 56 56 57 57 57 57 58 58 58 59 60 61 61 62 62 63 63 63 63 63 64 64 65 67 68 69 69 70 70 71 71 72 73 73 74 74 75
58 58 58 59 59 60 60 61 61 61 62 62 62 62 62 63 62 62 62 61 60 60 60 60 60 60 59 59 59 58 58 58 58 58 58 58 58 58 58 59 59 59 59 60 60 61 61 62 63 63 64 65 65 66 66 66 67 67 67 68 69 70 71 71 72 73 73 74 75 76 77 77 78 78
61 61 62 62 62 63 63 63 63 63 64 64 64 64 63 63 62 62 61 61 61 61 61 61 60 60 59 59 59 59 59 59 59 59 59 59 59 60 60 60 61 61 62 62 62 63 64 65 66 66 67 68 68 69 69 69 70 70 70 71 71 72 72 73 73 74 74 74 75 75 76 78 79 79
63 64 65 66 66 66 65 65 64 64 64 64 64 64 64 63 63 62 62 62 62 62 61 61 60 60 60 59 59 60 60 60 61 61 61 62 62 62 63 63 64 64 65 65 66 66 67 68 69 69 70 70 71 71 71 71 71 72 72 72 72 73 73 74 75 75 75 75 76 76 76 77 78 78
Wind_Direction
181 191 203 208 212 215 229 246 254 256 264 268 272 279 287 293 301 309 317 328 338 343 348 345 340 337 336 340 346 348 350 354 357 1 8 35 59 44 18 12 10 7 2 355 355 357 355 352 352 354 358 1 4 6 6 8 10 10 7 6 9 12 12 14 14 14 17 21 23 23 25 31 36 41
199 211 229 231 228 232 242 250 250 250 256 261 270 282 291 296 305 317 329 338 341 348 353 344 338 334 331 335 345 350 348 352 1 10 28 65 78 56 29 17 13 9 5 360 355 352 350 349 348 348 352 355 358 1 2 6 9 10 8 6 8 11 11 13 15 14 15 20 24 25 24 28 36 42
238 248 249 244 238 244 254 259 258 255 257 264 277 289 293 297 306 318 333 344 336 339 349 333 326 330 334 339 349 354 357 6 17 32 58 88 90 62 32 17 12 10 8 5 358 349 345 346 346 344 346 349 352 355 357 1 5 7 8 8 8 9 10 12 14 15 15 17 23 27 26 26 32 41
253 253 249 250 254 257 264 271 276 276 272 274 284 289 289 295 302 308 329 353 341 331 344 343 334 341 348 351 358 4 10 19 29 41 58 76 80 57 27 11 6 3 4 3 358 351 346 345 345 342 341 344 347 349 353 357 1 3 5 7 8 8 10 12 13 15 16 16 20 26 28 27 28 35
251 247 246 247 247 252 261 273 285 284 279 276 276 277 281 291 294 297 320 353 2 337 349 0 359 360 2 2 6 13 20 27 34 39 45 52 58 43 20 5 356 353 354 355 354 351 348 345 343 340 339 342 345 345 348 353 356 359 1 4 6 6 8 12 14 16 16 15 16 22 28 30 28 30
256 259 263 262 257 259 267 277 283 281 276 272 258 248 248 257 262 265 296 349 16 348 351 0 4 7 9 8 11 16 23 30 34 34 29 24 22 20 9 354 345 343 344 347 348 346 344 342 340 339 339 341 342 342 345 349 351 354 358 1 2 2 4 8 14 18 17 16 15 17 24 30 31 30
257 258 262 264 264 266 272 274 274 275 276 277 268 255 246 244 249 251 263 295 309 309 335 348 352 357 1 5 8 10 14 18 20 19 8 358 357 357 349 339 334 335 337 341 342 340 338 337 336 336 337 338 339 339 342 345 347 350 354 356 357 359 2 4 10 17 19 18 16 14 17 25 31 32
261 261 262 265 265 266 267 266 265 266 267 269 267 262 257 252 253 257 261 268 282 299 317 326 330 338 346 351 353 354 356 354 353 353 344 337 339 339 334 330 329 331 334 336 337 334 331 332 333 334 334 335 336 338 339 341 344 347 349 351 353 356 360 2 4 10 15 18 19 16 13 15 23 30
258 259 260 263 267 269 271 268 265 261 256 254 254 255 258 257 257 263 271 285 297 301 302 303 308 318 326 331 331 330 331 331 330 331 325 321 325 327 326 326 327 328 331 332 332 330 329 330 331 331 331 332 333 336 337 339 342 345 345 347 349 351 356 0 1 3 9 15 18 19 17 13 13 18
256 256 256 259 265 270 273 272 269 264 258 253 251 251 253 255 256 262 269 276 281 282 284 287 291 297 303 307 306 305 309 313 315 316 315 315 318 322 324 326 325 324 325 329 333 331 331 333 331 330 330 331 333 336 338 340 342 343 345 346 347 348 352 358 360 359 3 9 13 16 18 17 13 10
259 259 259 262 266 268 271 273 273 270 265 261 260 258 258 260 263 266 268 269 271 273 274 276 279 282 284 286 289 290 294 300 304 307 309 310 311 315 318 321 322 321 323 331 337 334 333 335 334 333 334 334 336 339 342 344 344 346 349 350 348 349 352 357 359 358 358 3 8 11 13 15 16 14
260 262 263 265 268 271 275 277 276 273 269 266 265 266 267 268 270 271 270 270 271 273 275 276 279 281 281 282 283 285 289 293 295 297 300 303 306 310 315 320 322 322 324 331 337 335 333 337 338 339 341 342 344 347 349 349 350 351 354 355 353 354 355 357 357 357 355 355 358 4 7 9 11 13
261 264 266 266 268 271 273 274 275 275 274 270 268 270 272 275 276 277 275 273 272 273 276 278 281 282 281 282 283 285 288 289 290 292 294 299 305 311 316 322 325 323 321 324 332 335 333 335 340 343 347 350 352 354 355 354 353 353 354 355 355 356 356 355 355 354 353 350 349 352 357 1 3 4
264 265 267 268 269 269 269 270 274 276 277 275 274 274 274 276 279 280 279 276 274 274 276 278 280 281 281 281 282 284 285 286 288 292 296 300 304 309 312 317 322 322 317 318 325 333 332 332 336 340 343 348 351 353 354 352 351 349 348 349 352 352 351 351 350 349 350 348 344 343 345 349 353 356
263 263 265 268 270 271 272 274 275 276 275 276 276 276 275 275 277 279 280 280 280 280 281 282 282 283 283 283 283 284 284 285 288 291 295 298 302 305 308 311 315 319 317 313 317 325 327 326 329 333 334 338 343 345 345 343 341 340 340 342 345 344 343 343 342 341 342 343 342 339 338 338 340 343
261 261 262 264 266 269 271 274 275 276 277 278 278 278 278 278 279 280 281 282 283 283 284 285 285 286 287 286 286 286 286 287 287 288 291 294 296 299 300 302 306 311 313 310 310 315 318 318 319 322 324 328 332 335 336 336 334 334 334 336 337 338 339 338 335 332 331 333 336 337 336 335 334 334
261 261 261 262 263 265 268 271 274 276 278 278 278 278 279 279 279 280 281 282 283 283 283 285 286 284 283 284 285 285 284 284 284 285 287 289 290 290 291 293 297 301 305 304 304 307 311 311 311 313 315 319 324 327 329 331 330 330 331 331 331 333 334 333 332 329 325 324 326 329 331 331 330 329
263 263 264 264 265 265 267 269 271 273 273 274 275 275 276 277 278 279 280 281 282 283 284 286 287 285 283 283 284 283 282 280 281 283 286 287 288 288 290 292 294 297 300 300 300 303 307 307 308 310 313 317 320 322 324 325 324 323 324 325 326 327 327 327 328 328 324 320 319 319 321 323 323 322
265 265 265 266 267 267 267 268 268 270 270 270 271 272 272 272 273 274 275 275 277 280 281 283 285 287 287 286 285 285 285 284 284 284 286 288 290 292 293 293 294 295 297 297 297 299 302 304 306 309 312 315 317 319 320 320 318 317 317 318 320 321 321 321 323 323 322 319 317 316 315 315 316 314
266 265 265 265 267 268 269 269 269 269 269 270 270 270 271 271 272 274 274 273 274 275 277 279 281 283 284 284 284 285 286 286 285 285 285 286 287 289 289 289 290 291 292 292 293 295 298 301 303 305 307 310 313 314 314 314 313 313 314 315 317 317 317 317 317 317 316 316 317 317 316 313 312 312
265 265 264 265 267 269 269 269 268 268 268 268 268 269 270 271 273 275 275 276 276 276 278 280 281 282 282 282 282 282 282 282 282 283 284 284 285 285 285 285 285 285 287 290 291 293 296 298 301 302 303 305 307 309 309 310 310 311 312 314 316 316 316 316 314 313 312 313 315 318 318 315 311 310
262 262 263 265 267 268 269 268 266 265 265 266 267 268 269 271 272 273 274 275 275 276 276 278 280 282 283 282 281 280 280 280 281 282 283 282 282 281 281 282 283 284 287 291 292 293 295 297 298 299 300 302 303 304 306 307 308 308 309 311 314 315 316 318 318 316 314 313 313 315 317 316 313 310
263 261 262 264 265 266 266 265 264 263 263 264 266 267 268 271 274 276 276 275 274 273 274 275 277 279 280 281 281 280 280 280 281 282 281 279 277 277 277 278 280 283 286 288 290 292 295 295 296 296 298 299 301 301 301 303 305 306 307 309 311 312 315 318 320 319 317 316 316 315 315 315 314 312
266 264 261 261 263 265 266 265 262 262 263 265 265 265 267 272 276 278 278 277 275 275 275 276 276 277 277 278 278 278 278 279 280 280 279 278 275 274 274 275 277 280 283 286 289 290 291 292 293 294 294 296 299 300 300 301 302 304 305 307 309 310 312 313 313 313 313 314 314 313 313 313 313 312
268 266 262 260 264 271 276 273 266 261 260 262 263 264 268 272 276 277 277 277 277 277 276 276 276 276 277 277 276 276 277 277 278 277 276 277 276 275 275 276 277 279 281 284 287 287 287 288 289 291 291 291 293 295 297 299 301 302 302 303 304 306 307 307 307 308 309 309 308 307 308 308 309 309
263 261 262 266 270 275 280 278 268 260 259 261 262 264 268 272 276 277 279 280 279 276 274 273 274 275 277 278 278 278 278 278 277 276 274 274 275 276 277 278 279 282 283 282 281 280 282 284 286 288 289 290 289 289 291 295 298 298 297 296 298 299 300 301 303 304 305 304 304 303 303 302 302 301
262 266 273 277 275 273 274 273 265 258 258 261 262 264 267 271 274 275 277 279 278 275 273 272 273 275 276 278 278 279 281 281 280 278 276 276 277 278 278 278 279 282 283 283 281 279 280 282 284 285 286 285 286 286 287 289 291 291 290 290 291 292 293 294 296 297 298 298 298 298 298 298 297 296
253 261 266 265 264 267 271 271 266 259 258 259 262 265 267 268 268 269 271 274 276 276 276 275 275 275 275 276 278 281 282 283 281 281 281 282 281 280 279 278 278 279 279 280 281 281 282 283 283 283 282 281 282 283 284 284 284 284 284 285 286 286 287 289 290 290 291 292 292 292 293 293 293 293
243 243 246 252 258 263 268 270 268 264 262 263 265 266 266 264 263 264 267 271 273 275 277 277 277 275 275 276 278 281 282 281 281 283 284 284 282 281 281 281 280 280 278 278 278 279 280 281 281 280 280 279 280 280 280 281 281 280 281 283 284 285 285 286 287 288 288 288 288 289 289 289 290 290
243 245 248 253 258 262 265 268 268 267 266 265 265 265 265 265 265 267 269 270 272 272 273 274 274 274 275 276 278 279 280 280 282 284 284 283 282 282 283 283 282 281 279 279 279 279 279 279 279 279 280 280 279 278 278 278 279 279 279 280 282 283 284 284 284 284 285 286 287 288 288 288 288 288
250 253 254 257 259 261 263 264 264 264 264 264 263 264 265 266 267 268 269 270 270 270 270 270 271 272 273 276 277 278 280 281 283 283 283 283 284 284 283 283 282 281 280 279 279 279 280 279 279 279 280 280 280 279 277 277 277 279 280 280 281 282 283 285 285 284 284 284 285 286 287 288 288 287
258 258 257 258 259 259 259 260 261 262 262 262 262 262 263 265 266 267 268 268 269 269 269 269 270 271 272 274 275 276 277 279 279 280 280 281 282 283 283 282 282 282 281 280 279 280 280 281 281 281 280 280 281 281 280 279 278 278 279 281 282 282 283 284 285 285 285 284 284 285 285 285 286 286
259 259 258 258 258 259 259 260 260 260 260 259 259 259 260 261 262 264 265 266 267 267 268 269 269 270 271 272 273 273 274 274 274 275 276 277 279 280 280 281 281 281 281 281 281 282 282 283 283 282 282 281 281 282 282 282 282 281 281 281 282 283 283 283 283 283 283 284 284 284 284 284 284 284
259 260 260 260 260 260 261 261 260 259 259 258 257 257 257 258 258 260 261 263 264 265 267 268 269 269 270 271 271 271 272 272 273 273 274 275 276 277 279 280 280 282 283 284 285 286 287 286 285 284 284 284 284 283 283 283 284 284 284 284 284 284 284 284 283 283 283 282 282 282 282 283 283 283
262 262 261 260 260 260 260 260 261 261 260 259 258 258 257 257 258 259 260 261 262 263 265 266 267 268 269 269 269 270 271 272 273 274 274 275 276 277 278 280 281 283 284 285 286 287 288 287 287 286 286 286 286 286 286 286 285 285 285 285 285 285 284 284 283 283 283 283 282 281 280 280 281 281
262 262 262 260 259 259 258 258 259 260 261 262 262 261 261 260 260 260 260 261 262 263 264 266 268 270 270 270 271 271 272 273 274 275 276 276 277 277 278 280 281 282 283 284 284 285 285 285 285 285 285 286 287 287 288 288 287 286 285 285 285 285 284 284 283 283 283 283 283 282 281 280 279 280
261 261 261 260 260 259 258 258 258 259 260 262 263 263 264 264 263 263 263 263 264 265 266 267 269 270 271 271 272 272 273 274 275 275 276 277 278 279 280 281 281 281 282 282 282 283 283 283 282 282 283 283 283 284 285 286 286 286 286 286 285 285 285 285 285 284 284 284 284 283 283 282 281 281
261 261 261 261 261 260 260 259 259 260 260 261 262 264 265 266 267 268 268 269 269 269 269 269 270 270 271 272 273 274 274 275 276 277 278 279 280 281 281 281 282 282 282 282 281 281 281 281 281 281 281 281 281 281 281 282 283 284 285 285 285 285 286 286 286 286 286 286 286 286 285 285 284 284
263 263 263 263 263 262 262 262 261 261 262 262 263 264 266 267 269 270 271 272 273 273 274 274 275 275 276 276 277 277 278 278 279 279 280 280 281 281 281 282 282 282 282 282 282 281 282 282 282 282 281 281 281 281 280 280 280 282 283 284 285 285 285 286 286 286 286 286 286 286 286 286 286 286
264 265 265 265 265 265 265 265 264 264 264 264 265 266 267 268 270 271 272 273 274 276 277 277 278 278 279 279 279 280 280 280 281 281 281 281 281 281 282 282 282 281 281 281 282 282 282 282 282 282 282 282 282 282 282 282 281 282 282 283 284 285 285 285 284 284 285 285 285 285 285 285 286 286
263 264 265 265 265 266 266 266 265 266 266 266 267 268 269 270 271 272 273 275 276 277 278 278 279 279 280 280 280 280 281 281 281 281 281 281 281 281 281 281 281 281 281 281 282 282 282 282 282 282 282 283 283 283 283 283 283 283 283 283 284 284 284 284 284 283 283 283 284 284 284 284 284 284
262 263 263 264 264 265 265 266 266 267 267 268 269 270 270 271 272 273 274 275 276 277 278 278 279 279 279 280 280 280 279 279 279 279 279 280 280 280 280 280 280 280 280 280 280 280 280 281 281 281 282 282 282 282 282 282 282 282 282 283 283 284 284 284 284 284 284 284 283 283 283 283 283 282
262 262 263 264 264 265 265 266 267 268 269 270 271 271 272 272 273 273 274 274 275 276 277 277 278 278 278 278 278 278 277 277 277 277 278 278 278 278 278 278 278 278 278 278 279 279 279 279 279 280 280 280 280 280 281 281 281 281 281 281 281 282 282 283 283 283 284 284 284 284 284 283 283 282
263 264 265 265 266 266 266 266 267 268 269 270 271 272 272 273 273 273 274 274 275 275 276 276 276 276 275 275 275 275 275 275 275 276 276 276 276 276 276 276 277 277 277 277 277 277 277 278 278 278 279 279 279 279 279 279 280 280 280 280 280 280 281 281 282 282 283 284 284 284 284 284 284 283
262 263 264 265 265 266 267 267 268 269 270 270 271 271 271 272 272 273 273 274 274 274 274 274 273 273 273 273 274 274 274 274 274 274 275 275 275 275 275 275 275 276 276 276 276 276 277 277 278 278 278 279 279 279 280 280 280 280 280 280 280 280 281 281 281 282 282 283 283 284 284 284 284 284
Height
5965 5965 5965 5964 5964 5964 5964 5963 5963 5963 5962 5962 5961 5960 5960 5959 5959 5958 5958 5958 5958 5957 5957 5956 5955 5954 5953 5952 5952 5951 5950 5950 5949 5949 5949 5948 5948 5947 5947 5946 5945 5944 5943 5942 5941 5940 5939 5938 5936 5935 5934 5932 5931 5929 5927 5925 5923 5920 5918 5915 5912 5909 5907 5905 5902 5899 5897 5895 5893 5891 5889 5888 5885 5882
5965 5965 5964 5964 5964 5964 5964 5963 5963 5962 5962 5961 5960 5959 5959 5958 5958 5957 5957 5956 5956 5956 5955 5954 5953 5953 5952 5951 5951 5951 5950 5950 5949 5949 5949 5948 5948 5947 5947 5946 5946 5945 5944 5942 5941 5939 5939 5937 5936 5935 5933 5932 5931 5929 5928 5926 5924 5922 5919 5916 5914 5911 5909 5907 5904 5902 5899 5897 5896 5894 5892 5890 5888 5886
5965 5964 5964 5964 5964 5964 5964 5963 5963 5962 5961 5960 5960 5959 5959 5958 5957 5957 5956 5956 5955 5954 5954 5953 5952 5951 5951 5951 5951 5950 5950 5950 5949 5949 5948 5948 5948 5947 5947 5946 5945 5944 5943 5942 5941 5939 5938 5937 5936 5934 5933 5932 5931 5929 5928 5926 5925 5923 5920 5918 5915 5913 5911 5908 5906 5904 5902 5900 5898 5896 5894 5893 5891 5890
5964 5964 5964 5964 5964 5964 5964 5963 5962 5962 5961 5960 5960 5959 5959 5958 5957 5957 5956 5955 5954 5953 5953 5952 5951 5950 5950 5950 5950 5949 5949 5949 5949 5948 5948 5948 5948 5947 5947 5946 5945 5944 5942 5941 5940 5939 5938 5937 5935 5934 5933 5932 5930 5929 5928 5927 5925 5923 5921 5919 5917 5914 5912 5910 5908 5906 5903 5902 5900 5899 5897 5895 5894 5893
5964 5963 5963 5963 5963 5963 5963 5962 5962 5961 5960 5960 5960 5959 5959 5958 5958 5957 5956 5955 5954 5953 5952 5951 5950 5950 5949 5949 5949 5948 5948 5948 5948 5948 5947 5947 5947 5947 5946 5945 5944 5943 5942 5941 5940 5939 5938 5936 5935 5934 5932 5931 5930 5929 5928 5926 5925 5924 5922 5919 5917 5915 5913 5911 5909 5907 5905 5903 5902 5900 5899 5898 5896 5895
5963 5963 5963 5963 5963 5963 5962 5962 5961 5961 5960 5960 5959 5959 5958 5958 5957 5957 5956 5955 5954 5953 5952 5951 5950 5949 5949 5949 5948 5948 5947 5947 5947 5947 5947 5946 5946 5946 5945 5945 5943 5942 5941 5940 5939 5938 5937 5936 5934 5933 5932 5931 5930 5929 5927 5926 5925 5923 5922 5920 5918 5916 5914 5912 5911 5909 5906 5904 5903 5901 5901 5900 5898 5897
5963 5963 5962 5962 5962 5962 5962 5961 5961 5961 5960 5960 5959 5959 5958 5957 5957 5956 5955 5955 5954 5954 5952 5951 5950 5950 5949 5949 5948 5948 5947 5947 5947 5946 5946 5946 5946 5945 5945 5944 5943 5942 5941 5940 5939 5938 5936 5935 5933 5932 5931 5930 5930 5929 5927 5926 5925 5923 5921 5920 5918 5916 5914 5912 5911 5910 5908 5906 5904 5903 5902 5901 5900 5899
5962 5962 5962 5962 5961 5961 5961 5961 5961 5961 5960 5960 5959 5958 5958 5957 5957 5956 5955 5955 5954 5954 5953 5952 5951 5951 5950 5949 5948 5948 5947 5947 5946 5946 5945 5945 5945 5945 5944 5943 5942 5942 5941 5940 5939 5937 5936 5934 5933 5932 5930 5930 5929 5928 5927 5926 5925 5923 5921 5920 5918 5916 5915 5913 5911 5910 5909 5908 5906 5904 5903 5902 5901 5900
5961 5961 5961 5961 5961 5960 5960 5960 5960 5960 5959 5959 5958 5957 5957 5957 5956 5956 5955 5955 5954 5954 5953 5952 5951 5951 5950 5949 5949 5948 5947 5946 5946 5945 5945 5944 5944 5944 5943 5943 5942 5941 5940 5939 5938 5937 5935 5934 5933 5931 5930 5929 5928 5927 5927 5926 5925 5923 5922 5920 5918 5916 5915 5913 5911 5910 5909 5909 5907 5906 5904 5903 5902 5901
5959 5959 5959 5959 5959 5959 5959 5959 5958 5958 5958 5957 5957 5956 5956 5956 5956 5956 5955 5954 5954 5953 5953 5952 5951 5951 5950 5949 5948 5948 5947 5946 5946 5945 5944 5943 5943 5943 5942 5942 5942 5940 5939 5938 5937 5936 5935 5934 5933 5931 5930 5929 5928 5927 5926 5925 5924 5923 5922 5920 5918 5916 5915 5913 5912 5911 5910 5909 5908 5907 5906 5904 5903 5902
5958 5958 5958 5958 5958 5958 5958 5957 5957 5956 5956 5956 5956 5956 5955 5955 5955 5955 5954 5954 5953 5953 5952 5951 5951 5950 5950 5949 5948 5947 5947 5946 5945 5944 5943 5942 5942 5942 5942 5941 5940 5939 5937 5937 5937 5935 5934 5933 5932 5931 5930 5929 5928 5927 5926 5924 5923 5922 5921 5920 5918 5917 5915 5914 5913 5911 5910 5909 5908 5907 5906 5905 5904 5903
5956 5956 5956 5957 5957 5956 5956 5955 5955 5954 5954 5954 5954 5954 5953 5953 5953 5953 5953 5952 5952 5951 5951 5950 5950 5949 5949 5948 5947 5946 5946 5946 5945 5944 5943 5941 5941 5940 5940 5940 5939 5937 5936 5935 5935 5934 5933 5932 5931 5930 5929 5929 5928 5927 5925 5924 5923 5921 5920 5919 5918 5917 5915 5914 5913 5912 5910 5909 5908 5907 5906 5905 5904 5903
5954 5954 5955 5955 5955 5954 5954 5953 5953 5952 5953 5952 5952 5952 5952 5952 5952 5951 5951 5950 5950 5949 5949 5949 5948 5948 5947 5946 5945 5945 5945 5944 5944 5943 5942 5941 5940 5939 5938 5938 5938 5937 5935 5933 5934 5933 5931 5930 5930 5929 5928 5928 5927 5926 5925 5923 5922 5920 5919 5918 5917 5916 5915 5914 5913 5912 5911 5909 5908 5907 5906 5905 5904 5903
5952 5952 5952 5953 5953 5952 5951 5951 5951 5951 5951 5950 5950 5950 5950 5950 5950 5949 5949 5948 5948 5947 5947 5947 5947 5946 5945 5944 5944 5943 5943 5942 5942 5941 5941 5940 5939 5938 5937 5936 5936 5936 5935 5932 5932 5932 5930 5929 5928 5927 5927 5926 5925 5924 5923 5922 5921 5919 5918 5917 5916 5916 5915 5914 5912 5911 5910 5909 5908 5907 5906 5905 5904 5903
5950 5950 5950 5951 5951 5950 5949 5949 5949 5949 5948 5948 5948 5948 5948 5948 5948 5947 5947 5946 5946 5945 5945 5945 5945 5944 5943 5943 5942 5942 5941 5941 5940 5940 5939 5938 5938 5937 5936 5934 5934 5935 5934 5932 5930 5930 5929 5928 5927 5926 5925 5925 5924 5923 5922 5921 5919 5918 5917 5916 5915 5914 5914 5913 5912 5910 5909 5908 5908 5907 5906 5905 5904 5903
5948 5948 5948 5948 5948 5948 5947 5947 5946 5946 5946 5946 5946 5946 5945 5946 5946 5945 5945 5944 5944 5943 5943 5942 5942 5942 5941 5941 5941 5940 5940 5939 5939 5938 5938 5937 5936 5935 5934 5933 5932 5932 5932 5931 5929 5928 5927 5926 5925 5925 5924 5924 5923 5922 5921 5920 5918 5917 5916 5915 5914 5913 5913 5912 5911 5909 5908 5907 5907 5906 5905 5904 5903 5902
5945 5945 5945 5945 5946 5945 5945 5945 5944 5944 5944 5944 5943 5943 5943 5943 5943 5943 5942 5942 5941 5941 5940 5940 5940 5940 5940 5939 5938 5938 5938 5937 5937 5936 5936 5935 5935 5934 5933 5932 5931 5931 5930 5929 5927 5926 5926 5925 5923 5923 5922 5922 5921 5921 5919 5918 5917 5915 5915 5914 5913 5912 5911 5910 5909 5908 5907 5906 5905 5904 5904 5903 5902 5901
5942 5942 5942 5942 5942 5943 5942 5942 5942 5941 5941 5941 5941 5940 5940 5940 5940 5940 5940 5939 5938 5938 5938 5937 5937 5937 5937 5937 5936 5936 5935 5935 5934 5934 5933 5932 5932 5932 5931 5930 5929 5929 5928 5927 5925 5924 5924 5923 5921 5920 5920 5920 5919 5918 5917 5916 5915 5914 5913 5912 5912 5911 5910 5909 5908 5907 5906 5905 5904 5903 5902 5901 5900 5900
5939 5939 5939 5939 5939 5939 5939 5939 5939 5938 5938 5938 5938 5938 5938 5938 5938 5937 5937 5936 5936 5935 5934 5934 5934 5933 5933 5933 5933 5933 5932 5932 5932 5931 5930 5930 5929 5929 5928 5927 5926 5926 5926 5925 5923 5922 5921 5921 5919 5918 5918 5917 5917 5916 5915 5914 5913 5912 5911 5911 5910 5909 5908 5907 5906 5905 5904 5903 5902 5901 5900 5899 5898 5898
5936 5936 5936 5935 5935 5935 5935 5935 5935 5935 5935 5935 5935 5935 5935 5935 5935 5935 5934 5933 5933 5932 5932 5931 5931 5931 5930 5930 5930 5930 5929 5929 5928 5928 5928 5927 5927 5926 5925 5924 5923 5923 5923 5922 5921 5920 5919 5919 5917 5916 5915 5915 5914 5913 5913 5912 5911 5910 5909 5909 5908 5907 5906 5905 5903 5902 5902 5901 5900 5899 5898 5897 5896 5895
5932 5932 5932 5932 5932 5932 5932 5932 5932 5932 5932 5932 5932 5932 5932 5932 5932 5932 5931 5930 5930 5929 5929 5928 5928 5927 5927 5927 5926 5926 5926 5926 5925 5925 5925 5925 5924 5924 5923 5921 5920 5920 5921 5920 5919 5918 5917 5916 5915 5913 5912 5912 5912 5911 5910 5909 5909 5908 5907 5906 5906 5905 5904 5903 5901 5900 5899 5898 5898 5897 5895 5894 5894 5893
5929 5929 5928 5928 5928 5928 5927 5927 5927 5927 5927 5928 5928 5929 5929 5929 5929 5929 5929 5928 5927 5926 5925 5925 5924 5924 5924 5923 5923 5923 5922 5922 5922 5922 5922 5921 5921 5920 5919 5918 5917 5916 5918 5918 5916 5915 5914 5914 5913 5911 5909 5909 5909 5908 5907 5906 5906 5905 5905 5904 5903 5902 5902 5901 5900 5898 5897 5896 5895 5894 5893 5892 5891 5890
5925 5925 5924 5924 5924 5923 5923 5922 5922 5922 5923 5924 5925 5925 5925 5925 5925 5926 5926 5925 5924 5923 5922 5921 5921 5920 5920 5919 5919 5919 5919 5918 5918 5918 5918 5917 5917 5916 5915 5915 5914 5913 5914 5915 5914 5912 5911 5911 5910 5909 5906 5905 5905 5905 5904 5904 5903 5903 5902 5902 5901 5900 5899 5899 5898 5896 5895 5894 5892 5892 5891 5890 5889 5888
5920 5920 5920 5920 5919 5919 5918 5917 5917 5918 5919 5920 5921 5921 5921 5921 5922 5922 5921 5921 5920 5919 5919 5918 5917 5917 5916 5916 5915 5915 5915 5915 5915 5914 5914 5913 5913 5912 5911 5911 5910 5909 5910 5911 5911 5910 5908 5907 5906 5906 5905 5903 5901 5900 5900 5900 5900 5900 5899 5898 5897 5897 5896 5896 5895 5894 5893 5892 5891 5889 5889 5888 5886 5885
5917 5917 5916 5916 5916 5915 5914 5913 5913 5914 5915 5915 5916 5917 5917 5918 5918 5917 5917 5916 5916 5916 5915 5914 5913 5913 5912 5912 5911 5911 5911 5911 5911 5910 5910 5909 5909 5909 5908 5907 5906 5906 5907 5908 5907 5906 5904 5904 5903 5902 5902 5901 5899 5897 5896 5896 5897 5897 5895 5894 5893 5893 5893 5892 5891 5891 5890 5889 5888 5887 5886 5885 5884 5883
5913 5912 5912 5912 5911 5911 5909 5909 5909 5910 5911 5912 5912 5913 5914 5914 5914 5913 5912 5912 5911 5911 5910 5910 5910 5910 5909 5908 5907 5907 5908 5907 5907 5906 5906 5906 5905 5905 5904 5904 5903 5903 5903 5904 5904 5902 5901 5900 5900 5899 5898 5897 5896 5895 5893 5893 5894 5893 5891 5890 5890 5890 5889 5888 5888 5887 5886 5885 5884 5884 5883 5882 5881 5880
5908 5908 5908 5908 5906 5906 5905 5905 5905 5906 5907 5908 5909 5909 5910 5910 5910 5909 5908 5907 5906 5905 5905 5905 5906 5906 5906 5905 5904 5904 5904 5904 5903 5902 5902 5902 5902 5901 5900 5900 5900 5900 5900 5900 5899 5898 5898 5897 5897 5897 5896 5894 5893 5892 5891 5890 5890 5889 5887 5886 5887 5887 5886 5885 5885 5884 5882 5881 5880 5879 5878 5878 5877 5876
5904 5905 5905 5903 5901 5901 5902 5902 5902 5902 5903 5904 5905 5906 5906 5906 5905 5904 5903 5902 5901 5901 5901 5901 5902 5902 5902 5901 5901 5901 5901 5900 5899 5898 5899 5899 5898 5897 5896 5896 5897 5897 5897 5896 5895 5894 5894 5894 5893 5893 5892 5891 5889 5888 5887 5886 5886 5885 5883 5882 5882 5883 5882 5881 5881 5880 5878 5877 5876 5875 5874 5873 5872 5872
5900 5901 5900 5898 5897 5898 5899 5899 5899 5899 5899 5900 5901 5902 5902 5901 5900 5899 5899 5898 5897 5897 5897 5897 5898 5898 5898 5898 5898 5897 5897 5896 5895 5895 5895 5895 5894 5893 5892 5892 5892 5893 5892 5892 5891 5890 5890 5889 5889 5888 5887 5886 5886 5886 5884 5882 5881 5881 5879 5878 5877 5877 5877 5877 5876 5875 5874 5872 5871 5870 5869 5868 5867 5867
5895 5895 5895 5894 5894 5895 5896 5896 5896 5895 5896 5897 5898 5898 5897 5896 5895 5895 5895 5895 5894 5893 5893 5892 5893 5893 5893 5893 5893 5893 5892 5892 5891 5891 5890 5889 5889 5889 5888 5887 5887 5887 5887 5887 5886 5886 5886 5885 5884 5883 5881 5881 5881 5881 5880 5878 5876 5876 5876 5874 5873 5872 5872 5872 5872 5871 5869 5867 5865 5864 5863 5862 5862 5861
5889 5890 5890 5890 5890 5891 5891 5891 5891 5891 5892 5893 5893 5893 5892 5892 5891 5891 5891 5891 5890 5889 5888 5887 5887 5887 5888 5888 5888 5888 5887 5887 5887 5886 5885 5884 5884 5883 5883 5882 5881 5881 5881 5881 5881 5881 5880 5880 5879 5878 5877 5876 5875 5875 5875 5874 5872 5871 5870 5869 5869 5868 5867 5866 5865 5865 5865 5863 5861 5859 5857 5856 5855 5855
5884 5885 5885 5885 5885 5886 5886 5886 5886 5886 5887 5887 5888 5887 5887 5886 5886 5886 5885 5885 5885 5884 5883 5883 5883 5883 5883 5883 5883 5883 5882 5882 5881 5881 5880 5880 5879 5878 5877 5876 5875 5874 5874 5874 5875 5875 5875 5875 5874 5872 5871 5870 5869 5868 5867 5867 5867 5866 5865 5863 5862 5862 5861 5861 5860 5858 5858 5857 5857 5855 5853 5851 5849 5848
5878 5879 5879 5880 5880 5880 5880 5880 5880 5880 5880 5881 5881 5881 5881 5880 5880 5879 5879 5879 5879 5878 5878 5878 5878 5878 5878 5878 5878 5877 5877 5876 5875 5875 5874 5874 5873 5872 5871 5870 5869 5867 5866 5866 5867 5868 5869 5869 5868 5866 5864 5863 5862 5861 5860 5859 5858 5858 5858 5858 5856 5855 5854 5854 5853 5852 5851 5851 5850 5849 5847 5845 5843 5842
5872 5873 5874 5874 5874 5875 5874 5874 5874 5874 5874 5874 5874 5874 5874 5874 5873 5873 5873 5873 5873 5873 5872 5872 5872 5873 5873 5872 5871 5871 5870 5869 5868 5868 5867 5867 5866 5866 5865 5863 5862 5861 5860 5860 5860 5861 5861 5861 5860 5858 5856 5855 5854 5853 5852 5851 5850 5850 5849 5849 5849 5848 5847 5846 5844 5844 5843 5843 5843 5843 5841 5838 5835 5834
5867 5868 5868 5869 5869 5869 5869 5868 5867 5867 5867 5867 5867 5867 5867 5867 5867 5867 5867 5867 5867 5867 5866 5866 5866 5866 5866 5865 5865 5864 5863 5862 5861 5860 5860 5859 5859 5859 5858 5857 5856 5856 5855 5854 5853 5853 5853 5852 5850 5849 5848 5846 5844 5843 5842 5842 5841 5841 5841 5840 5839 5839 5839 5838 5836 5835 5834 5834 5834 5834 5834 5832 5829 5826
5862 5862 5863 5863 5863 5863 5863 5863 5862 5861 5860 5860 5860 5860 5860 5861 5861 5861 5861 5861 5861 5861 5860 5860 5860 5859 5858 5857 5857 5856 5856 5855 5854 5853 5852 5852 5852 5852 5851 5851 5851 5850 5848 5847 5846 5845 5845 5844 5843 5842 5840 5838 5836 5834 5832 5830 5829 5829 5830 5831 5830 5830 5830 5829 5827 5827 5825 5824 5824 5823 5824 5824 5822 5819
5856 5857 5857 5857 5857 5857 5856 5856 5856 5855 5854 5853 5853 5853 5853 5853 5853 5854 5855 5855 5855 5854 5854 5853 5852 5851 5850 5850 5849 5849 5848 5847 5846 5846 5845 5845 5845 5845 5844 5844 5843 5842 5841 5839 5838 5837 5837 5836 5835 5834 5833 5832 5831 5829 5826 5823 5819 5817 5819 5820 5820 5819 5819 5818 5817 5816 5815 5814 5813 5812 5812 5812 5812 5810
5850 5850 5850 5849 5849 5849 5849 5849 5849 5848 5848 5847 5846 5846 5846 5846 5846 5847 5847 5847 5847 5847 5846 5846 5845 5844 5843 5842 5842 5841 5840 5840 5839 5838 5838 5837 5837 5836 5835 5834 5834 5833 5832 5831 5830 5829 5828 5827 5826 5825 5825 5824 5823 5823 5821 5818 5813 5809 5808 5810 5809 5808 5808 5807 5806 5805 5804 5802 5802 5801 5800 5800 5800 5800
5843 5842 5842 5842 5842 5842 5842 5842 5842 5841 5841 5840 5840 5840 5839 5839 5839 5839 5839 5839 5839 5838 5838 5837 5836 5836 5835 5834 5833 5832 5832 5831 5830 5830 5829 5829 5828 5827 5826 5825 5825 5824 5822 5821 5820 5819 5818 5818 5817 5816 5815 5814 5814 5814 5813 5812 5809 5804 5800 5799 5799 5799 5798 5797 5796 5795 5794 5792 5791 5791 5789 5787 5787 5787
5835 5835 5835 5835 5835 5835 5835 5834 5834 5834 5833 5833 5833 5833 5833 5832 5832 5832 5831 5831 5830 5829 5829 5828 5827 5826 5826 5825 5824 5824 5823 5822 5822 5821 5820 5819 5819 5818 5818 5817 5816 5814 5813 5812 5811 5810 5809 5808 5807 5806 5804 5804 5804 5803 5803 5802 5801 5798 5794 5791 5789 5788 5788 5787 5787 5786 5785 5783 5782 5781 5780 5778 5777 5775
5828 5828 5828 5827 5827 5827 5826 5826 5826 5826 5825 5825 5825 5825 5825 5825 5824 5824 5823 5822 5822 5821 5820 5819 5818 5817 5817 5816 5816 5815 5814 5814 5813 5812 5811 5810 5810 5809 5808 5807 5806 5805 5804 5803 5802 5801 5800 5798 5797 5795 5794 5794 5793 5793 5792 5791 5791 5788 5785 5782 5779 5778 5777 5776 5776 5775 5774 5773 5771 5771 5770 5769 5768 5767
5819 5819 5819 5818 5818 5818 5818 5818 5817 5817 5817 5817 5817 5817 5816 5816 5816 5815 5815 5814 5814 5813 5812 5810 5809 5808 5808 5807 5807 5806 5806 5805 5804 5803 5802 5802 5801 5800 5799 5798 5797 5796 5795 5794 5793 5792 5790 5788 5787 5786 5785 5784 5783 5782 5781 5781 5780 5779 5777 5774 5771 5768 5765 5763 5762 5761 5761 5760 5759 5758 5757 5757 5756 5755
5810 5810 5810 5809 5809 5809 5809 5809 5808 5808 5808 5808 5808 5807 5807 5807 5806 5806 5806 5806 5805 5804 5803 5802 5801 5800 5799 5799 5798 5797 5797 5796 5795 5794 5793 5793 5792 5791 5790 5789 5788 5787 5786 5785 5784 5782 5780 5779 5777 5776 5775 5774 5772 5772 5771 5770 5769 5768 5767 5765 5762 5759 5755 5753 5750 5748 5747 5746 5744 5743 5742 5741 5741 5740
5801 5801 5801 5800 5800 5799 5799 5799 5799 5799 5799 5799 5798 5798 5797 5797 5797 5797 5797 5796 5795 5795 5794 5793 5792 5792 5791 5790 5790 5789 5788 5787 5786 5786 5784 5783 5782 5782 5781 5779 5778 5777 5776 5775 5774 5772 5770 5769 5768 5766 5765 5763 5761 5760 5759 5759 5758 5757 5755 5753 5751 5749 5746 5743 5741 5738 5736 5733 5731 5730 5728 5726 5725 5724
5792 5791 5791 5790 5790 5789 5789 5789 5789 5789 5789 5789 5788 5787 5787 5787 5787 5787 5786 5786 5785 5785 5784 5784 5783 5783 5782 5782 5781 5779 5778 5778 5777 5776 5775 5774 5773 5772 5771 5770 5769 5767 5766 5765 5764 5762 5760 5758 5757 5755 5753 5752 5750 5748 5747 5746 5745 5744 5743 5741 5739 5737 5735 5733 5730 5728 5726 5723 5720 5718 5716 5715 5712 5710